Location: Dodgeville, WI 53533, USA
(43.0344°N, 90.0900°W)
Time: 15:09:50
(UTC-06:00)

ISS - Visible Passes

Search period start: 14 December 2018 00:00
Search period end: 24 December 2018 00:00
Orbit: 401 x 408 km, 51.6° (Epoch: 15 December)

Date Brightness Start Highest point End Pass type
(mag) Time Alt. Az. Time Alt. Az. Time Alt. Az.
14 Dec -0.4 18:02:00 10° WSW 18:03:15 12° SW 18:04:30 10° SSW visible
15 Dec -0.9 17:08:45 10° W 17:11:19 21° SW 17:13:52 10° S visible
22 Dec -0.5 06:13:32 10° SSE 06:15:11 13° SE 06:16:50 10° E visible
23 Dec -3.0 06:55:48 10° SW 06:59:01 56° SE 07:02:15 10° ENE visible
